カタログに戻る

ONEWEB-0305

運用中通信PO
NORAD 49093·PAYLOAD·🇬🇧 United Kingdom

打ち上げ Aug 21, 2021 から Baikonur Cosmodrome

Loading…

次のパス (今後24時間)

TLE

最新Source: CelesTrak SupGP

元期: Sep 14, 2026, 22:36 UTC

1 49093C 21075U   26257.94180972 -.00001848  00000+0 -47650-2 0  2575
2 49093  87.9212 348.0373 0001893 114.5129 357.8064 13.17654174    11

AllMySatでONEWEB-0305をリアルタイム追跡

Download on the App Store